sat.trackr.live / text

‹ back to catalog

STARLINK-31262

NORAD 58847 · 2024-017X

PAYLOAD ACTIVE UNKNOWN

§ Identity

Operator
Country
US
Launch date
2024-01-24
Launch site
AFWTR
Launch vehicle
Mass (kg)
RCS (m²)

Purposes: comms

External: N2YO · Heavens-Above · Gunter

§ Orbital elements

Epoch: 2026-09-20T06:49:12.735552Z

Period
93.85 min
Inclination
53.1579°
Eccentricity
0.0000930
Mean motion
15.34387115 rev/d
Perigee alt
462.1 km
Apogee alt
463.4 km
Semi-major
6,840.9 km
B*
5.1474e-5
RAAN
108.3636°
Arg perigee
95.9938°
Mean anomaly
264.1170°
Rev number
14,859

§ Raw data

STARLINK-312621 58847U 24017X   26263.28417518  .00001363  00000+0  51474-4 0  99982 58847  53.1579 108.3636 0000930  95.9938 264.1170 15.34387115148592

JSON: /api/v1/satellites/58847 · /tle

For live sub-satellite position, see the globe view (requires WebGL).

§ Visibility from observer

Set your observer location to see the next 7 days of passes ≥ 10°. The values pass through the URL so the page stays shareable.

No JS? Fill the form by hand. The geolocation button needs JavaScript.